SCP
0 0 0 0 0 0 0 0 0 0 0 0 0 0 0 0 0 0 0 0 0 0 0 0 0 0 0 0 0 0 0 0 0 0 0 0 0 0 0 0 0 0 0 0 -0
0 0 0 0 0 0 0 0 0 0 0 0 0 0 0 0 0 0 0 0 0 0 0 0 0 0 0 0 0 0 0 0 0 0 0 0 0 0 0 0 0 0 0 0 0
0 0 0 0 0 0 0 0 0 0 0 0 0 0 0 0 0 0 0 0 0 0 0 0 0 0 0 0 0 0 0 0 0 0 0 0 0 0 0 0 0 0 0 0 0
0 0 0 0 0 0 0 0 0 0 0 0 0 0 0 0 0 0 0 0 0 0 0 0 0 0 0 0 0 0 0 0 0 0 0 0 0 0 0 0 0 0 0 0 0
0 0 0 0 0 0 0 0 0 0 0 0 0 0 0 0 0 0 0 0 0 0 0 0 0 0 0 0 0 0 0 0 0 0 0 0 0 0 0 0 0 0 0 0 0
0 0 0 0 0 0 0 0 0 0 0 0 0 0 0 0 0 0 0 0 0 0 0 0 0 0 0 0 0 0 0 0 0 0 0 0 0 0 0 0 0 0 0 0 0
0 0 0 0 0 0 0 0 0 0 0 0 0 0 0 0 0 0 0 0 0 0 0 0 0 0 0 0 0 0 0 0 0 0 0 0 0 0 0 0 0 0 0 0 0
0 0 0 0 0 0 0 0 0 0 0 0 0 0 0 0 0 0 0 0 0 0 0 0 0 0 0 0 0 0 0 0 0 0 0 0 0 0 0 0 0 0 0 0 0
0 0 0 0 0 0 0 0 0 0 0 0 0 0 0 0 0 0 0 0 0 0 0 0 0 0 0 0 0 0 0 0 0 0 0 0 0 0 0 0 0 0 0 0 0
0 0 0 0 0 0 0 0 0 0 0 0 0 0 0 0 0 0 0 0 0 0 0 0 0 0 0 0 0 0 0 0 0 0 0 0 0 0 0 0 0 0 0 0 0
0 0 0 0 0 0 0 0 0 0 0 0 0 0 0 0 0 0 0 0 0 0 0 0 0 0 0 0 0 0 0 0 0 0 0 0 0 0 0 0 0 0 0 0 0
0 0 0 0 0 0 0 0 0 0 0 0 0 0 0 0 0 0 0 0 0 0 0 0 0 0 0 0 0 0 0 0 0 0 0 0 0 0 0 0 0 0 0 0 0
0 0 0 0 0 0 0 0 0 0 0 0 0 0 0 0 0 0 0 0 0 0 0 0 0 0 0 0 0 0 0 0 0 0 0 0 -0 0 0 0 0 0 0 0 0
0 0 0 0 0 0 0 0 0 0 0 0 0 0 0 0 0 0 0 0 0 0 0 0 0 0 0 0 0 0 0 0 0 0 0 0 -0 0 0 0 0 0 0 0 0
0 0 0 0 0 0 0 0 0 0 0 0 0 0 0 0 0 0 0 0 0 0 0 0 0 0 0 0 0 0 0 0 0 0 0 0 0 -0 0 0 0 0 0 0 0
0 0 0 0 0 0 0 0 0 0 0 0 0 0 0 0 0 0 0 0 0 0 0 0 0 0 0 0 0 0 0 0 0 0 0 0 0 -0 0 0 0 0 0 0 0
0 0 0 0 0 0 0 0 0 0 0 0 0 0 0 0 0 0 0 0 0 0 0 0 0 0 0 0 0 0 0 0 0 0 0 0 0 0 0 0 0 0 0 0 0
0 0 0 0 0 0 0 0 0 0 0 0 0 0 0 0 0 0 0 0 0 0 0 0 0 0 0 0 0 0 0 0 0 0 0 0 0 0 0 0 0 0 0 0 0
0 0 0 0 0 0 0 0 0 0 0 0 0 0 0 0 0 0 0 0 0 0 0 0 0 0 0 0 0 0 0 0 0 0 0 0 0 0 0 0 0 0 0 0 0
0 0 0 0 0 0 0 0 0 0 0 0 0 0 0 0 0 0 0 0 0 0 0 0 0 0 0 0 0 0 0 0 0 0 0 0 0 0 0 0 0 0 0 0 0
0 0 0 0 0 0 0 0 0 0 0 0 0 0 0 0 0 0 0 0 0 0 0 0 0 0 0 0 0 0 0 0 0 0 0 0 0 0 0 0 0 0 0 0 0
0 0 0 0 0 0 0 0 0 0 0 0 0 0 0 0 0 0 0 0 0 0 0 0 0 0 0 0 0 0 0 0 0 0 0 0 0 0 0 0 0 0 0 0 0
0 0 0 0 0 0 0 0 0 0 0 0 0 0 0 0 0 0 0 0 0 0 0 0 0 0 0 0 0 0 0 0 0 0 0 0 0 0 0 0 0 0 0 0 0
0 0 0 0 0 0 0 0 0 0 0 0 0 0 0 0 0 0 0 0 0 0 0 0 0 0 0 0 0 0 0 0 0 0 0 0 0 0 0 0 -0 0 0 0 0
0 0 0 0 0 0 0 0 0 0 0 0 0 0 0 0 0 0 0 0 0 0 0 0 0 0 0 0 0 0 0 0 0 0 0 0 0 0 0 0 0 0 0 0 0
0 0 0 0 0 0 0 0 0 0 0 0 0 0 0 0 0 0 0 0 0 0 0 0 0 0 0 0 0 0 0 0 0 0 0 0 0 0 -0 0 0 0 0 0 0
0 0 0 0 0 0 0 0 0 0 0 0 0 0 0 0 0 0 0 0 0 0 0 0 0 0 0 0 0 0 0 0 0 0 0 0 0 0 0 -0 0 0 0 0 0
Wind_Speed_500mb
38 36 34 32 30 29 28 28 28 29 30 32 33 34 35 37 30 27 8 16 32 30 24 26 10 8 1 6 8 11 2 5 5 8 5 6 7 16 20 32 23 26 15 15 60
42 39 37 35 32 31 29 30 30 29 32 32 33 34 35 38 38 10 2 28 26 27 22 24 19 8 1 4 5 3 6 14 7 6 5 7 9 27 18 24 12 21 20 37 61
45 42 39 36 34 32 32 33 35 31 33 33 34 36 36 36 38 9 5 26 18 27 28 18 16 10 4 2 1 4 8 8 7 16 9 6 8 15 17 21 31 49 49 63 65
46 44 42 39 36 35 36 37 37 35 33 34 33 35 36 31 11 8 27 26 15 24 24 19 11 5 4 5 4 7 12 9 9 3 6 5 7 10 28 14 32 42 53 71 71
48 46 43 41 39 39 39 40 41 38 38 36 37 34 36 20 36 39 34 21 19 29 26 16 7 3 1 3 9 7 10 11 21 27 21 12 16 11 24 19 24 41 61 68 69
50 47 46 44 44 44 45 44 46 44 41 40 41 41 34 20 24 16 17 22 32 40 21 10 2 5 8 5 4 4 15 24 21 18 15 11 9 16 21 24 32 52 66 69 69
52 50 49 47 40 45 46 47 49 52 48 43 45 42 39 56 41 52 49 52 45 37 28 11 7 5 4 7 5 6 12 18 15 12 9 11 10 17 19 37 42 56 66 71 69
52 54 52 51 39 45 49 55 51 53 51 47 44 38 28 46 48 52 46 46 40 38 37 17 10 7 7 10 8 5 2 9 6 15 11 15 39 25 29 47 47 53 65 73 72
55 54 56 43 45 47 53 56 52 47 45 43 31 24 27 29 26 9 14 18 14 12 26 15 8 7 6 4 6 2 14 12 13 11 6 22 29 22 36 47 49 53 62 70 70
46 39 49 38 43 47 43 29 20 23 19 15 24 9 25 20 13 12 16 16 10 14 19 18 10 6 4 11 14 9 10 8 13 4 13 29 31 15 31 44 56 60 59 65 74
37 40 44 48 52 38 27 18 10 9 25 19 11 12 5 11 11 11 10 10 16 14 12 13 10 19 38 32 16 4 8 19 13 13 9 21 36 31 30 34 36 46 56 63 76
34 36 35 33 36 34 28 15 11 2 16 31 45 58 57 32 14 24 18 13 14 12 12 5 25 35 11 19 24 22 28 34 27 28 19 38 52 39 26 30 62 64 61 70 58
23 26 27 30 35 33 27 20 16 17 11 22 42 41 48 51 42 53 31 20 11 13 23 31 11 13 21 19 17 24 32 23 27 16 20 26 61 48 30 51 50 64 74 83 87
40 37 34 32 27 28 25 24 16 3 7 11 8 7 17 19 13 34 62 40 12 27 13 23 21 19 12 16 28 25 22 31 28 13 15 5 32 31 15 35 34 59 69 82 87
35 36 33 33 11 22 16 21 23 15 6 5 5 3 6 16 8 6 23 31 40 19 11 10 6 15 28 27 22 16 13 20 19 17 12 22 16 38 12 21 31 40 66 76 85
43 42 39 32 18 20 30 34 24 7 16 3 8 7 7 10 5 7 8 6 10 19 13 12 3 6 9 6 22 3 5 2 6 5 16 20 23 57 25 31 23 39 53 59 59
45 47 38 32 22 26 41 33 7 7 6 4 3 7 7 6 7 9 10 12 7 11 18 20 36 17 10 16 4 11 4 6 7 10 19 18 23 43 20 21 17 24 39 57 60
39 43 35 32 27 35 48 7 8 3 4 6 3 7 5 5 2 4 7 6 7 3 3 2 5 11 10 26 17 17 18 10 10 8 8 6 22 19 7 11 19 22 35 38 57
40 40 37 40 40 47 33 7 9 8 2 5 3 3 6 8 6 5 3 8 11 9 7 2 7 2 2 12 14 6 16 28 12 15 5 10 24 39 16 10 15 18 11 34 47
45 42 31 42 50 52 8 16 5 2 3 2 3 5 5 13 7 7 7 12 9 13 6 5 12 9 7 3 11 13 1 1 6 7 11 13 16 25 19 25 27 22 22 26 33
45 23 26 36 42 25 9 10 6 5 2 6 4 6 6 4 5 6 7 7 9 13 16 7 3 5 11 3 11 11 11 12 13 9 13 23 16 6 16 15 23 29 33 33 39
35 6 23 27 9 7 7 12 7 5 4 6 5 5 4 3 2 1 2 4 3 5 6 7 3 9 15 27 24 24 21 10 6 6 9 13 22 28 24 22 29 41 36 28 39
19 11 25 25 7 6 4 7 5 4 6 6 7 6 8 3 3 5 4 7 7 5 5 1 2 11 24 8 6 10 6 3 6 8 15 18 15 27 42 44 68 48 38 32 30
13 5 5 4 9 8 9 6 7 4 4 10 9 4 3 9 6 7 1 5 6 8 3 3 10 13 22 29 8 11 14 11 5 8 15 19 30 49 46 35 37 43 45 38 33
8 5 8 7 6 8 7 7 13 11 5 8 1 11 10 9 9 14 11 9 7 10 6 7 13 10 22 32 22 22 25 32 32 37 24 44 34 44 44 25 27 30 20 20 26
9 9 9 7 11 14 8 6 14 4 7 4 8 7 9 9 8 8 11 7 8 3 0 3 6 9 17 27 30 27 37 44 39 46 38 44 45 32 44 30 37 25 21 24 27
11 18 9 5 6 10 7 9 13 12 8 3 3 3 2 3 2 12 23 25 28 19 14 9 7 7 19 9 14 20 47 39 34 34 25 23 29 24 23 24 30 37 18 26 28
Wind_Direction_500mb
239 243 248 253 258 268 280 288 293 302 308 314 321 326 327 325 331 339 30 10 346 346 354 358 356 336 247 169 155 146 126 219 242 186 281 197 166 157 167 145 169 184 177 200 175
240 243 247 253 259 268 276 285 286 293 299 311 317 321 323 323 326 298 10 347 354 3 354 2 11 3 351 132 171 149 181 204 210 211 268 279 204 161 160 158 169 176 181 172 176
241 242 245 249 256 263 271 276 284 291 299 308 314 317 320 325 328 201 304 341 350 3 3 359 360 8 0 335 206 182 219 201 249 238 279 287 184 194 169 193 193 188 175 171 176
239 242 244 247 252 259 266 274 280 289 296 304 308 312 319 322 298 222 307 318 315 344 348 358 344 15 42 307 358 293 265 243 279 272 291 236 219 200 181 193 215 207 187 176 183
239 241 244 247 250 257 264 272 278 284 290 293 298 305 316 300 269 284 284 281 293 317 329 351 5 15 268 296 314 215 284 288 278 293 281 238 230 249 216 223 200 193 183 183 185
243 246 250 251 256 262 266 271 280 285 288 292 299 309 310 284 284 279 262 267 284 297 302 323 298 306 279 243 205 292 288 286 293 283 282 234 210 171 225 196 180 187 190 190 191
245 249 250 255 260 266 268 274 274 279 287 292 298 296 284 269 284 275 270 273 275 276 267 244 249 232 305 284 290 280 298 297 249 258 255 219 218 222 214 188 183 187 190 192 195
245 251 252 251 249 264 262 264 269 274 283 285 282 275 261 289 281 271 267 266 269 262 246 225 234 212 216 293 321 290 192 278 309 217 234 197 254 223 202 182 189 192 192 195 200
244 250 252 235 254 255 256 253 257 268 278 273 271 256 269 272 272 257 228 233 255 252 208 196 188 190 166 201 297 332 261 234 291 226 249 213 259 237 193 191 195 196 196 199 202
240 234 237 228 264 255 248 248 248 254 249 251 242 265 252 240 250 240 248 228 206 168 158 183 170 155 163 182 239 217 227 225 248 294 236 246 248 242 205 203 202 201 201 203 207
209 213 228 238 243 212 191 176 198 234 229 219 217 216 317 224 206 207 212 198 166 187 172 184 178 200 218 206 216 201 251 263 250 260 279 261 266 255 240 210 218 212 212 211 214
172 181 176 176 180 176 178 181 191 258 299 262 256 257 258 253 276 237 219 195 179 217 130 147 231 222 204 201 217 231 254 263 274 267 273 280 272 258 240 219 215 215 215 218 212
226 222 219 216 208 209 217 224 247 310 278 276 254 248 253 242 235 245 230 208 192 200 201 234 241 225 207 207 204 220 224 244 254 303 279 282 278 262 231 229 219 221 222 225 218
214 223 219 216 229 229 234 227 236 48 311 268 240 272 209 219 257 249 233 220 199 236 204 252 243 218 201 221 211 245 208 234 247 261 270 214 290 262 259 226 218 219 215 219 219
198 202 193 187 202 185 179 162 143 134 353 134 166 189 196 195 325 35 207 214 228 210 188 241 190 206 231 243 191 263 188 211 223 226 283 237 265 272 237 235 225 223 218 218 214
211 202 186 180 174 173 159 149 137 73 229 123 121 168 168 228 289 99 107 151 225 211 230 263 333 177 207 241 205 154 207 167 76 184 254 226 209 279 273 239 238 229 223 222 213
202 187 187 182 182 164 155 143 85 190 11 71 60 197 232 183 220 160 159 184 179 165 224 252 252 230 205 247 151 192 185 221 214 194 251 170 196 246 304 299 274 258 228 220 208
194 191 191 189 176 165 157 81 191 173 243 352 334 269 198 155 188 142 120 152 248 77 108 195 307 165 198 229 238 207 204 234 245 212 297 215 244 251 314 317 333 256 254 216 207
183 197 197 198 191 171 159 187 209 190 266 349 275 93 20 17 42 24 81 15 22 221 218 303 251 33 337 231 196 209 213 238 257 259 246 258 277 285 281 290 357 339 254 216 209
175 181 184 202 182 174 159 211 213 292 349 333 120 14 81 1 48 34 33 1 10 17 238 10 298 304 324 7 206 242 210 92 113 253 235 242 267 256 305 296 298 293 268 243 221
169 167 168 185 170 169 187 170 186 235 211 69 108 92 82 72 50 19 27 19 358 346 45 43 351 297 324 317 339 292 255 235 249 230 255 269 261 235 298 313 305 298 283 253 229
155 115 180 153 123 169 166 147 157 28 45 39 85 89 113 112 29 225 175 79 259 312 41 25 130 291 279 282 293 258 299 327 287 263 263 278 262 279 314 334 338 320 312 282 241
123 104 158 180 160 150 117 114 120 64 41 57 60 43 23 83 294 227 222 152 83 66 105 86 77 317 306 154 50 60 9 146 212 244 246 265 286 320 310 318 307 298 301 289 241
132 105 136 155 116 146 133 120 126 168 166 172 186 137 272 279 236 272 317 23 119 137 195 290 218 217 253 269 261 268 259 258 206 252 283 266 283 288 287 313 305 289 274 253 228
128 141 152 174 189 111 97 107 151 165 217 190 45 192 188 223 221 245 267 280 215 287 193 218 239 230 245 258 260 254 256 260 246 257 253 271 271 264 284 297 303 322 288 246 228
112 133 124 102 126 129 133 181 180 149 159 207 187 136 184 222 262 294 356 310 284 323 249 319 258 206 264 253 252 246 250 256 261 259 262 261 266 263 278 284 299 307 287 251 240
115 125 130 2 106 141 178 169 184 160 226 232 110 142 221 256 52 296 285 260 251 261 267 274 267 245 263 230 234 246 245 245 245 244 227 228 256 277 275 290 290 298 292 270 240
Wind_Speed_850mb
38 36 34 32 30 29 28 28 28 29 30 32 33 34 35 37 30 27 8 16 32 30 24 26 10 8 1 6 8 11 2 5 5 8 5 6 7 16 20 32 23 26 15 15 60
42 39 37 35 32 31 29 30 30 29 32 32 33 34 35 38 38 10 2 28 26 27 22 24 19 8 1 4 5 3 6 14 7 6 5 7 9 27 18 24 12 21 20 37 61
45 42 39 36 34 32 32 33 35 31 33 33 34 36 36 36 38 9 5 26 18 27 28 18 16 10 4 2 1 4 8 8 7 16 9 6 8 15 17 21 31 49 49 63 65
46 44 42 39 36 35 36 37 37 35 33 34 33 35 36 31 11 8 27 26 15 24 24 19 11 5 4 5 4 7 12 9 9 3 6 5 7 10 28 14 32 42 53 71 71
48 46 43 41 39 39 39 40 41 38 38 36 37 34 36 20 36 39 34 21 19 29 26 16 7 3 1 3 9 7 10 11 21 27 21 12 16 11 24 19 24 41 61 68 69
50 47 46 44 44 44 45 44 46 44 41 40 41 41 34 20 24 16 17 22 32 40 21 10 2 5 8 5 4 4 15 24 21 18 15 11 9 16 21 24 32 52 66 69 69
52 50 49 47 40 45 46 47 49 52 48 43 45 42 39 56 41 52 49 52 45 37 28 11 7 5 4 7 5 6 12 18 15 12 9 11 10 17 19 37 42 56 66 71 69
52 54 52 51 39 45 49 55 51 53 51 47 44 38 28 46 48 52 46 46 40 38 37 17 10 7 7 10 8 5 2 9 6 15 11 15 39 25 29 47 47 53 65 73 72
55 54 56 43 45 47 53 56 52 47 45 43 31 24 27 29 26 9 14 18 14 12 26 15 8 7 6 4 6 2 14 12 13 11 6 22 29 22 36 47 49 53 62 70 70
46 39 49 38 43 47 43 29 20 23 19 15 24 9 25 20 13 12 16 16 10 14 19 18 10 6 4 11 14 9 10 8 13 4 13 29 31 15 31 44 56 60 59 65 74
37 40 44 48 52 38 27 18 10 9 25 19 11 12 5 11 11 11 10 10 16 14 12 13 10 19 38 32 16 4 8 19 13 13 9 21 36 31 30 34 36 46 56 63 76
34 36 35 33 36 34 28 15 11 2 16 31 45 58 57 32 14 24 18 13 14 12 12 5 25 35 11 19 24 22 28 34 27 28 19 38 52 39 26 30 62 64 61 70 58
23 26 27 30 35 33 27 20 16 17 11 22 42 41 48 51 42 53 31 20 11 13 23 31 11 13 21 19 17 24 32 23 27 16 20 26 61 48 30 51 50 64 74 83 87
40 37 34 32 27 28 25 24 16 3 7 11 8 7 17 19 13 34 62 40 12 27 13 23 21 19 12 16 28 25 22 31 28 13 15 5 32 31 15 35 34 59 69 82 87
35 36 33 33 11 22 16 21 23 15 6 5 5 3 6 16 8 6 23 31 40 19 11 10 6 15 28 27 22 16 13 20 19 17 12 22 16 38 12 21 31 40 66 76 85
43 42 39 32 18 20 30 34 24 7 16 3 8 7 7 10 5 7 8 6 10 19 13 12 3 6 9 6 22 3 5 2 6 5 16 20 23 57 25 31 23 39 53 59 59
45 47 38 32 22 26 41 33 7 7 6 4 3 7 7 6 7 9 10 12 7 11 18 20 36 17 10 16 4 11 4 6 7 10 19 18 23 43 20 21 17 24 39 57 60
39 43 35 32 27 35 48 7 8 3 4 6 3 7 5 5 2 4 7 6 7 3 3 2 5 11 10 26 17 17 18 10 10 8 8 6 22 19 7 11 19 22 35 38 57
40 40 37 40 40 47 33 7 9 8 2 5 3 3 6 8 6 5 3 8 11 9 7 2 7 2 2 12 14 6 16 28 12 15 5 10 24 39 16 10 15 18 11 34 47
45 42 31 42 50 52 8 16 5 2 3 2 3 5 5 13 7 7 7 12 9 13 6 5 12 9 7 3 11 13 1 1 6 7 11 13 16 25 19 25 27 22 22 26 33
45 23 26 36 42 25 9 10 6 5 2 6 4 6 6 4 5 6 7 7 9 13 16 7 3 5 11 3 11 11 11 12 13 9 13 23 16 6 16 15 23 29 33 33 39
35 6 23 27 9 7 7 12 7 5 4 6 5 5 4 3 2 1 2 4 3 5 6 7 3 9 15 27 24 24 21 10 6 6 9 13 22 28 24 22 29 41 36 28 39
19 11 25 25 7 6 4 7 5 4 6 6 7 6 8 3 3 5 4 7 7 5 5 1 2 11 24 8 6 10 6 3 6 8 15 18 15 27 42 44 68 48 38 32 30
13 5 5 4 9 8 9 6 7 4 4 10 9 4 3 9 6 7 1 5 6 8 3 3 10 13 22 29 8 11 14 11 5 8 15 19 30 49 46 35 37 43 45 38 33
8 5 8 7 6 8 7 7 13 11 5 8 1 11 10 9 9 14 11 9 7 10 6 7 13 10 22 32 22 22 25 32 32 37 24 44 34 44 44 25 27 30 20 20 26
9 9 9 7 11 14 8 6 14 4 7 4 8 7 9 9 8 8 11 7 8 3 0 3 6 9 17 27 30 27 37 44 39 46 38 44 45 32 44 30 37 25 21 24 27
11 18 9 5 6 10 7 9 13 12 8 3 3 3 2 3 2 12 23 25 28 19 14 9 7 7 19 9 14 20 47 39 34 34 25 23 29 24 23 24 30 37 18 26 28
Wind_Direction_850mb
239 243 248 253 258 268 280 288 293 302 308 314 321 326 327 325 331 339 30 10 346 346 354 358 356 336 247 169 155 146 126 219 242 186 281 197 166 157 167 145 169 184 177 200 175
240 243 247 253 259 268 276 285 286 293 299 311 317 321 323 323 326 298 10 347 354 3 354 2 11 3 351 132 171 149 181 204 210 211 268 279 204 161 160 158 169 176 181 172 176
241 242 245 249 256 263 271 276 284 291 299 308 314 317 320 325 328 201 304 341 350 3 3 359 360 8 0 335 206 182 219 201 249 238 279 287 184 194 169 193 193 188 175 171 176
239 242 244 247 252 259 266 274 280 289 296 304 308 312 319 322 298 222 307 318 315 344 348 358 344 15 42 307 358 293 265 243 279 272 291 236 219 200 181 193 215 207 187 176 183
239 241 244 247 250 257 264 272 278 284 290 293 298 305 316 300 269 284 284 281 293 317 329 351 5 15 268 296 314 215 284 288 278 293 281 238 230 249 216 223 200 193 183 183 185
243 246 250 251 256 262 266 271 280 285 288 292 299 309 310 284 284 279 262 267 284 297 302 323 298 306 279 243 205 292 288 286 293 283 282 234 210 171 225 196 180 187 190 190 191
245 249 250 255 260 266 268 274 274 279 287 292 298 296 284 269 284 275 270 273 275 276 267 244 249 232 305 284 290 280 298 297 249 258 255 219 218 222 214 188 183 187 190 192 195
245 251 252 251 249 264 262 264 269 274 283 285 282 275 261 289 281 271 267 266 269 262 246 225 234 212 216 293 321 290 192 278 309 217 234 197 254 223 202 182 189 192 192 195 200
244 250 252 235 254 255 256 253 257 268 278 273 271 256 269 272 272 257 228 233 255 252 208 196 188 190 166 201 297 332 261 234 291 226 249 213 259 237 193 191 195 196 196 199 202
240 234 237 228 264 255 248 248 248 254 249 251 242 265 252 240 250 240 248 228 206 168 158 183 170 155 163 182 239 217 227 225 248 294 236 246 248 242 205 203 202 201 201 203 207
209 213 228 238 243 212 191 176 198 234 229 219 217 216 317 224 206 207 212 198 166 187 172 184 178 200 218 206 216 201 251 263 250 260 279 261 266 255 240 210 218 212 212 211 214
172 181 176 176 180 176 178 181 191 258 299 262 256 257 258 253 276 237 219 195 179 217 130 147 231 222 204 201 217 231 254 263 274 267 273 280 272 258 240 219 215 215 215 218 212
226 222 219 216 208 209 217 224 247 310 278 276 254 248 253 242 235 245 230 208 192 200 201 234 241 225 207 207 204 220 224 244 254 303 279 282 278 262 231 229 219 221 222 225 218
214 223 219 216 229 229 234 227 236 48 311 268 240 272 209 219 257 249 233 220 199 236 204 252 243 218 201 221 211 245 208 234 247 261 270 214 290 262 259 226 218 219 215 219 219
198 202 193 187 202 185 179 162 143 134 353 134 166 189 196 195 325 35 207 214 228 210 188 241 190 206 231 243 191 263 188 211 223 226 283 237 265 272 237 235 225 223 218 218 214
211 202 186 180 174 173 159 149 137 73 229 123 121 168 168 228 289 99 107 151 225 211 230 263 333 177 207 241 205 154 207 167 76 184 254 226 209 279 273 239 238 229 223 222 213
202 187 187 182 182 164 155 143 85 190 11 71 60 197 232 183 220 160 159 184 179 165 224 252 252 230 205 247 151 192 185 221 214 194 251 170 196 246 304 299 274 258 228 220 208
194 191 191 189 176 165 157 81 191 173 243 352 334 269 198 155 188 142 120 152 248 77 108 195 307 165 198 229 238 207 204 234 245 212 297 215 244 251 314 317 333 256 254 216 207
183 197 197 198 191 171 159 187 209 190 266 349 275 93 20 17 42 24 81 15 22 221 218 303 251 33 337 231 196 209 213 238 257 259 246 258 277 285 281 290 357 339 254 216 209
175 181 184 202 182 174 159 211 213 292 349 333 120 14 81 1 48 34 33 1 10 17 238 10 298 304 324 7 206 242 210 92 113 253 235 242 267 256 305 296 298 293 268 243 221
169 167 168 185 170 169 187 170 186 235 211 69 108 92 82 72 50 19 27 19 358 346 45 43 351 297 324 317 339 292 255 235 249 230 255 269 261 235 298 313 305 298 283 253 229
155 115 180 153 123 169 166 147 157 28 45 39 85 89 113 112 29 225 175 79 259 312 41 25 130 291 279 282 293 258 299 327 287 263 263 278 262 279 314 334 338 320 312 282 241
123 104 158 180 160 150 117 114 120 64 41 57 60 43 23 83 294 227 222 152 83 66 105 86 77 317 306 154 50 60 9 146 212 244 246 265 286 320 310 318 307 298 301 289 241
132 105 136 155 116 146 133 120 126 168 166 172 186 137 272 279 236 272 317 23 119 137 195 290 218 217 253 269 261 268 259 258 206 252 283 266 283 288 287 313 305 289 274 253 228
128 141 152 174 189 111 97 107 151 165 217 190 45 192 188 223 221 245 267 280 215 287 193 218 239 230 245 258 260 254 256 260 246 257 253 271 271 264 284 297 303 322 288 246 228
112 133 124 102 126 129 133 181 180 149 159 207 187 136 184 222 262 294 356 310 284 323 249 319 258 206 264 253 252 246 250 256 261 259 262 261 266 263 278 284 299 307 287 251 240
115 125 130 2 106 141 178 169 184 160 226 232 110 142 221 256 52 296 285 260 251 261 267 274 267 245 263 230 234 246 245 245 245 244 227 228 256 277 275 290 290 298 292 270 240